Find GalileoSat-1

NORAD ID: 37846 Int'l Des: 2011-060 Owner: ESA/GSAEU Country: I-ESA Constellation: Galileo operational
MEOCIRCULAR

現在のビュー

3D地球を読み込み中...

About GalileoSat-1

GalileoSat-1 (NORAD 37846) is a Galileo constellation satellite launched Oct 21, 2011 by ESA/GSAEU of I-ESA. It operates in MEO, CIRCULAR orbit with a mass of 700.00 kg.

GalileoSat-1について

説明を読み込み中...

次回通過

Passes for default location (London). Set your location on the main map for personalized predictions.

高度履歴

Loading altitude history...

軌道要素

1 37846U 11060A 26194.24470205 -.00000093 00000-0 00000+0 0 9994
2 37846 56.9850 341.0553 0002286 61.5340 298.4760 1.70475537 91567
Epoch: Jul 13, 2026 • Age: 25 hours

現在のステータス

高度 23249.1 km
遠地点 / 近地点 N/A
速度 3.67 km/s
衛星直下点 -56.93°S, 142.01°W
打ち上げ日 Oct 21, 2011
運用期間 14.7 years
タイプ navigation

技術仕様

分類 Payload
質量 700.00 kg
乾燥質量 700.00 kg
総質量 700.00 kg
長さ 2.70 m
直径 1.60 m
スパン 14.50 m
形状 Box + 2 Pan
製造者 EADSB/THALR
バスタイプ GalileoSat
フェーズステータス In Orbit
所有者/国 ESA/GSAEU/I-ESA

Most Searched